AZA73E LIML-LIEO

Flight info

Callsign AZA73E
Flight time 1h 2m
Altitude 35000
Route ITCAP DCT OTMUV DCT UNITA DCT OLETI DCT TORTU DCT OKROK DCT AJO DCT CORSI
Aircraft A306/H-SDE3FGHIRWY/LB1

Departure

Time 2026-05-04 17:05
Airport Milano Linate Airport (LIML)

Arrival

Time 2026-05-04 18:08
Airport Olbia Costa Smeralda Airport (LIEO)
Time Latitude Longitude Altitude Speed Heading
2026-05-04 16:24 45.45970 9.27903 366 ft 0 kts 360°
2026-05-04 16:49 45.45931 9.27903 366 ft 4 kts
2026-05-04 16:49 45.45908 9.27888 366 ft 2 kts 82°
2026-05-04 16:50 45.45907 9.27869 368 ft 0 kts 90°
2026-05-04 16:59 45.45907 9.27874 366 ft 3 kts 90°
2026-05-04 17:00 45.45578 9.27981 369 ft 19 kts 180°
2026-05-04 17:00 45.45191 9.27869 370 ft 20 kts 181°
2026-05-04 17:01 45.44904 9.27919 371 ft 22 kts 162°
2026-05-04 17:01 45.44598 9.27966 368 ft 21 kts 176°
2026-05-04 17:02 45.44314 9.27996 366 ft 21 kts 175°
2026-05-04 17:02 45.43944 9.28038 367 ft 30 kts 175°
2026-05-04 17:03 45.43735 9.28059 370 ft 29 kts 175°
2026-05-04 17:03 45.43546 9.28079 367 ft 23 kts 176°
2026-05-04 17:03 45.43449 9.27849 369 ft 14 kts 298°
2026-05-04 17:04 45.43520 9.27813 369 ft 0 kts 356°
2026-05-04 17:04 45.43804 9.27781 372 ft 78 kts 355°
2026-05-04 17:05 45.45106 9.27629 405 ft 169 kts 354°
2026-05-04 17:05 45.47581 9.27692 2149 ft 185 kts 16°
2026-05-04 17:06 45.49358 9.30844 3200 ft 249 kts 82°
2026-05-04 17:06 45.49197 9.33410 3747 ft 271 kts 111°
2026-05-04 17:07 45.46426 9.36575 5195 ft 266 kts 178°
2026-05-04 17:07 45.45220 9.36339 5871 ft 266 kts 200°
2026-05-04 17:07 45.43308 9.34203 7310 ft 268 kts 229°
2026-05-04 17:07 45.41933 9.32407 8355 ft 271 kts 208°
2026-05-04 17:08 45.40094 9.31849 9388 ft 275 kts 175°
2026-05-04 17:08 45.36754 9.34724 10847 ft 307 kts 136°
2026-05-04 17:08 45.35232 9.37006 11197 ft 329 kts 136°
2026-05-04 17:09 45.33601 9.39368 11538 ft 348 kts 137°
2026-05-04 17:09 45.31817 9.41840 11873 ft 367 kts 138°
2026-05-04 17:09 45.29928 9.44394 12317 ft 380 kts 139°
2026-05-04 17:10 45.25993 9.49635 13640 ft 392 kts 140°
2026-05-04 17:10 45.19161 9.55978 15547 ft 400 kts 162°
2026-05-04 17:11 45.16529 9.57327 16175 ft 404 kts 163°
2026-05-04 17:11 45.13868 9.58677 16810 ft 409 kts 163°
2026-05-04 17:11 45.09375 9.60974 17825 ft 417 kts 162°
2026-05-04 17:12 45.06683 9.62574 18410 ft 422 kts 158°
2026-05-04 17:12 45.01305 9.66109 19471 ft 429 kts 158°
2026-05-04 17:13 44.93097 9.71492 20964 ft 438 kts 157°
2026-05-04 17:14 44.84703 9.76946 22440 ft 446 kts 158°
2026-05-04 17:14 44.81788 9.78431 22919 ft 447 kts 166°
2026-05-04 17:14 44.75654 9.79269 23783 ft 447 kts 186°
2026-05-04 17:15 44.72587 9.78544 24110 ft 449 kts 196°
2026-05-04 17:15 44.66930 9.74897 24803 ft 450 kts 216°
2026-05-04 17:16 44.62491 9.68730 25520 ft 451 kts 235°
2026-05-04 17:16 44.58305 9.56907 26549 ft 455 kts 246°
2026-05-04 17:17 44.57010 9.52843 26855 ft 457 kts 246°
2026-05-04 17:17 44.53096 9.40732 28285 ft 450 kts 246°
2026-05-04 17:18 44.51796 9.36740 28792 ft 447 kts 246°
2026-05-04 17:18 44.49240 9.28912 29838 ft 442 kts 246°
2026-05-04 17:19 44.46864 9.21781 30716 ft 437 kts 243°
2026-05-04 17:19 44.43353 9.14880 31616 ft 435 kts 228°
2026-05-04 17:20 44.38504 9.09823 32445 ft 439 kts 211°
2026-05-04 17:20 44.32713 9.07094 33205 ft 448 kts 194°
2026-05-04 17:20 44.29609 9.06541 33556 ft 449 kts 191°
2026-05-04 17:21 44.23358 9.05797 34232 ft 449 kts 189°
2026-05-04 17:21 44.17168 9.05153 34835 ft 448 kts 190°
2026-05-04 17:22 44.14053 9.04812 35043 ft 448 kts 190°
2026-05-04 17:22 44.10965 9.04460 35067 ft 448 kts 190°
2026-05-04 17:23 43.98568 9.02992 35062 ft 447 kts 191°
2026-05-04 17:24 43.89270 9.01874 35057 ft 447 kts 191°
2026-05-04 17:25 43.76881 9.00365 35048 ft 446 kts 191°
2026-05-04 17:26 43.64544 8.98890 35042 ft 445 kts 191°
2026-05-04 17:27 43.49173 8.97060 35033 ft 443 kts 191°
2026-05-04 17:28 43.36901 8.95607 35026 ft 443 kts 191°
2026-05-04 17:29 43.18512 8.93475 35021 ft 442 kts 191°
2026-05-04 17:31 43.03195 8.91708 35018 ft 441 kts 191°
2026-05-04 17:32 42.87937 8.89956 35022 ft 440 kts 191°
2026-05-04 17:33 42.75786 8.88567 35022 ft 439 kts 191°
2026-05-04 17:34 42.63624 8.87185 35020 ft 434 kts 192°
2026-05-04 17:35 42.48692 8.85490 35022 ft 431 kts 192°
2026-05-04 17:36 42.42705 8.84810 35018 ft 431 kts 192°
2026-05-04 17:36 42.36718 8.84131 35026 ft 431 kts 192°
2026-05-04 17:37 42.30724 8.83457 35035 ft 432 kts 192°
2026-05-04 17:37 42.24724 8.82784 35046 ft 433 kts 192°
2026-05-04 17:38 42.18743 8.82112 35040 ft 433 kts 192°
2026-05-04 17:38 42.12718 8.81437 35034 ft 435 kts 192°
2026-05-04 17:39 42.03678 8.80426 35020 ft 435 kts 192°
2026-05-04 17:39 41.97638 8.79743 35016 ft 435 kts 192°
2026-05-04 17:40 41.91625 8.79073 35018 ft 436 kts 192°
2026-05-04 17:40 41.85578 8.78409 35014 ft 435 kts 192°
2026-05-04 17:41 41.79531 8.77741 35023 ft 435 kts 192°
2026-05-04 17:41 41.73407 8.77811 35031 ft 443 kts 184°
2026-05-04 17:42 41.67250 8.78317 35037 ft 443 kts 184°
2026-05-04 17:42 41.61159 8.78842 35031 ft 434 kts 184°
2026-05-04 17:43 41.58195 8.79104 34857 ft 422 kts 184°
2026-05-04 17:43 41.55259 8.79355 34092 ft 426 kts 184°
2026-05-04 17:43 41.52279 8.79603 33119 ft 431 kts 184°
2026-05-04 17:43 41.49250 8.79856 32107 ft 438 kts 184°
2026-05-04 17:44 41.46190 8.80116 31236 ft 440 kts 184°
2026-05-04 17:44 41.43133 8.80378 30392 ft 442 kts 184°
2026-05-04 17:44 41.40060 8.80641 29404 ft 444 kts 183°
2026-05-04 17:44 41.36978 8.80920 28493 ft 444 kts 181°
2026-05-04 17:45 41.33910 8.81666 27555 ft 454 kts 170°
2026-05-04 17:45 41.30989 8.83388 26625 ft 467 kts 154°
2026-05-04 17:45 41.28296 8.85784 26026 ft 462 kts 150°
2026-05-04 17:45 41.25707 8.88208 25387 ft 457 kts 149°
2026-05-04 17:46 41.23102 8.90645 24730 ft 452 kts 149°
2026-05-04 17:46 41.20569 8.93002 24093 ft 448 kts 149°
2026-05-04 17:46 41.18014 8.95369 23419 ft 444 kts 149°
2026-05-04 17:46 41.15496 8.97695 22726 ft 439 kts 149°
2026-05-04 17:47 41.13011 8.99987 22088 ft 433 kts 149°
2026-05-04 17:47 41.10547 9.02256 21494 ft 427 kts 149°
2026-05-04 17:47 41.08111 9.04495 20885 ft 422 kts 149°
2026-05-04 17:47 41.05700 9.06710 20292 ft 418 kts 148°
2026-05-04 17:48 41.03342 9.08873 19702 ft 414 kts 148°
2026-05-04 17:48 41.00994 9.11023 19096 ft 411 kts 148°
2026-05-04 17:48 40.98652 9.13166 18478 ft 409 kts 148°
2026-05-04 17:48 40.96308 9.15309 17783 ft 407 kts 148°
2026-05-04 17:49 40.94000 9.17418 17116 ft 404 kts 148°
2026-05-04 17:49 40.91679 9.19538 16476 ft 400 kts 148°
2026-05-04 17:49 40.89407 9.21610 15849 ft 397 kts 148°
2026-05-04 17:49 40.87163 9.23654 15243 ft 393 kts 148°
2026-05-04 17:50 40.84918 9.25696 14617 ft 391 kts 148°
2026-05-04 17:50 40.82673 9.27738 13979 ft 388 kts 149°
2026-05-04 17:50 40.80473 9.29740 13296 ft 385 kts 148°
2026-05-04 17:50 40.78259 9.31753 12657 ft 381 kts 148°
2026-05-04 17:51 40.76101 9.33734 12034 ft 377 kts 147°
2026-05-04 17:51 40.74204 9.36087 11640 ft 381 kts 132°
2026-05-04 17:51 40.72895 9.39178 11367 ft 391 kts 112°
2026-05-04 17:51 40.72468 9.42699 11020 ft 395 kts 91°
2026-05-04 17:52 40.73007 9.46267 10675 ft 395 kts 69°
2026-05-04 17:52 40.74327 9.49355 10464 ft 378 kts 56°
2026-05-04 17:52 40.75785 9.52115 10160 ft 366 kts 54°
2026-05-04 17:52 40.77232 9.54811 9882 ft 353 kts 55°
2026-05-04 17:53 40.78632 9.57437 9507 ft 345 kts 55°
2026-05-04 17:53 40.79989 9.60004 9174 ft 336 kts 55°
2026-05-04 17:53 40.81288 9.62471 8884 ft 327 kts 55°
2026-05-04 17:53 40.82567 9.64907 8607 ft 318 kts 55°
2026-05-04 17:54 40.83810 9.67287 8422 ft 307 kts 56°
2026-05-04 17:54 40.84996 9.69560 8267 ft 297 kts 56°
2026-05-04 17:54 40.86154 9.71784 8107 ft 287 kts 56°
2026-05-04 17:54 40.87268 9.73924 7871 ft 282 kts 56°
2026-05-04 17:55 40.88370 9.76044 7494 ft 282 kts 56°
2026-05-04 17:55 40.89479 9.78171 7180 ft 281 kts 56°
2026-05-04 17:55 40.90590 9.80303 6850 ft 279 kts 56°
2026-05-04 17:55 40.91693 9.82416 6538 ft 277 kts 56°
2026-05-04 17:56 40.92776 9.84494 6292 ft 272 kts 56°
2026-05-04 17:56 40.93841 9.86542 6056 ft 267 kts 56°
2026-05-04 17:56 40.94877 9.88543 5904 ft 260 kts 56°
2026-05-04 17:56 40.95896 9.90514 5837 ft 259 kts 57°
2026-05-04 17:57 40.96914 9.92486 5735 ft 260 kts 57°
2026-05-04 17:57 40.97934 9.94464 5658 ft 260 kts 57°
2026-05-04 17:57 40.98951 9.96434 5574 ft 259 kts 56°
2026-05-04 17:57 40.99955 9.98378 5470 ft 259 kts 56°
2026-05-04 17:58 41.01211 10.00212 5386 ft 281 kts 37°
2026-05-04 17:58 41.03006 10.01260 5285 ft 286 kts
2026-05-04 17:58 41.04929 10.00926 5163 ft 278 kts 332°
2026-05-04 17:58 41.06367 9.99347 4952 ft 266 kts 298°
2026-05-04 17:59 41.07017 9.97092 4846 ft 261 kts 281°
2026-05-04 17:59 41.07331 9.94738 4711 ft 255 kts 274°
2026-05-04 17:59 41.07660 9.90279 4432 ft 235 kts 272°
2026-05-04 18:00 41.07835 9.88162 4288 ft 226 kts 274°
2026-05-04 18:00 41.07973 9.86807 4194 ft 221 kts 275°
2026-05-04 18:00 41.08286 9.84159 4002 ft 218 kts 276°
2026-05-04 18:00 41.08855 9.82285 3884 ft 223 kts 300°
2026-05-04 18:01 41.09456 9.81071 3833 ft 245 kts 295°
2026-05-04 18:01 41.09817 9.78870 3728 ft 253 kts 261°
2026-05-04 18:01 41.09143 9.76764 3606 ft 247 kts 228°
2026-05-04 18:02 41.06132 9.75634 3095 ft 241 kts 170°
2026-05-04 18:02 41.04476 9.76222 3010 ft 243 kts 169°
2026-05-04 18:02 41.02909 9.76462 2991 ft 211 kts 180°
2026-05-04 18:02 41.01652 9.75847 2993 ft 186 kts 225°
2026-05-04 18:03 41.01142 9.74383 3002 ft 170 kts 251°
2026-05-04 18:03 41.00734 9.72959 3014 ft 166 kts 242°
2026-05-04 18:03 41.00182 9.71626 3020 ft 162 kts 237°
2026-05-04 18:03 40.99594 9.70432 3001 ft 147 kts 234°
2026-05-04 18:04 40.99033 9.69354 2926 ft 143 kts 233°
2026-05-04 18:04 40.98469 9.68267 2748 ft 143 kts 234°
2026-05-04 18:04 40.97344 9.66101 2350 ft 142 kts 233°
2026-05-04 18:05 40.96791 9.65041 2147 ft 138 kts 233°
2026-05-04 18:05 40.96241 9.63987 1972 ft 140 kts 233°
2026-05-04 18:05 40.95692 9.62933 1770 ft 142 kts 232°
2026-05-04 18:05 40.95131 9.61854 1579 ft 141 kts 232°
2026-05-04 18:06 40.94005 9.59698 1200 ft 144 kts 232°
2026-05-04 18:06 40.93436 9.58607 995 ft 144 kts 233°
2026-05-04 18:06 40.92860 9.57497 905 ft 148 kts 234°
2026-05-04 18:07 40.92292 9.56379 721 ft 148 kts 233°
2026-05-04 18:07 40.91682 9.55258 469 ft 151 kts 235°
2026-05-04 18:07 40.91083 9.54103 250 ft 152 kts 234°
2026-05-04 18:07 40.90486 9.52949 43 ft 149 kts 233°
2026-05-04 18:08 40.89970 9.51962 39 ft 108 kts 236°
2026-05-04 18:08 40.89655 9.51358 40 ft 42 kts 240°
2026-05-04 18:08 40.89640 9.51165 40 ft 16 kts 295°
2026-05-04 18:08 40.89724 9.51117 40 ft 14 kts 27°
2026-05-04 18:09 40.89866 9.51369 40 ft 23 kts 56°
2026-05-04 18:09 40.90050 9.51480 40 ft 10 kts 345°
2026-05-04 18:10 40.90099 9.51523 40 ft 11 kts 53°
2026-05-04 18:10 40.90143 9.51611 40 ft 12 kts 56°
2026-05-04 18:10 40.90139 9.51666 40 ft 5 kts 121°
2026-05-04 18:10 40.90135 9.51697 40 ft 2 kts 91°
2026-05-04 18:11 40.90135 9.51700 40 ft 0 kts 91°